User: anonymous   Login
Location: Goheenville
(40.9070°N, 79.3720°W)
Time: 00:23:03
(UTC-04:00)
Language:

Meteor 2-10 Rocket - Orbit

View from above orbital plane
View from above orbital plane
View from above satellite
View from above satellite

Ground track
Ground track

The orbit data is extracted from the following two-line orbital elements,

1 14453U 83109B   15087.42597808  .00000237  00000-0  91764-4 0  9995
2 14453 081.1687 202.8770 0104090 251.7056 107.2776 14.24579723631943
Epoch (UTC): 28 March 2015 10:13:24
Eccentricity: 0.0104090
inclination: 81.1687°
perigee height: 735 km
apogee height: 885 km
right ascension of ascending node: 202.8770°
argument of perigee: 251.7056°
revolutions per day: 14.24579723
mean anomaly at epoch: 107.2776°
orbit number at epoch: 63194

The dashed part of the orbit path shows where the satellite is in the earth's shadow,  

DLR